Camp Pendleton, CA

2:12 PM PST on January 23, 2018 (GMT -0800)
Camp Pendleton Marine Corps Air Station

Weather History for KNFG - March, 2013

Change the Weather History Date:

Tuesday, March 26, 2013

  Actual Average Record
Temperature  
Mean Temperature 58 °F -  
Max Temperature 68 °F 64 °F 91 °F (2015)
Min Temperature 51 °F 45 °F 41 °F (2002)
Degree Days  
Heating Degree Days 6    
Growing Degree Days 8 (Base 50)    
Moisture  
Dew Point 49 °F    
Average Humidity 78    
Maximum Humidity 88    
Minimum Humidity 51    
Precipitation  
Precipitation 0.00 in - - ()
Sea Level Pressure  
Sea Level Pressure 29.96 in    
Wind  
Wind Speed 4 mph (ENE)    
Max Wind Speed 12 mph    
Max Gust Speed 16 mph    
Visibility 6 miles    
Events      
Averages and records for this station are not official NWS values.
T = Trace of Precipitation, MM = Missing Value Source: NWS Daily Summary

Daily Weather History Graph

Daily Weather History Graph

Search for Another Location

Airport or City:

Trip Planner

Search our weather history database for the weather conditions in past years. The results will help you decide how hot, cold, wet, or windy it might be!

Date:

Astronomy

Mar. 26, 2013 Rise Set
Actual Time 6:44 AM PDT 7:05 PM PDT
Civil Twilight 6:19 AM PDT 7:30 PM PDT
Nautical Twilight 5:50 AM PDT 7:59 PM PDT
Astronomical Twilight 5:21 AM PDT 8:29 PM PDT
Moon 6:46 PM PDT (3/26) 6:03 AM PDT (3/26)
Length of Visible Light 13h 10m
Length of Day
12h 21m
Full, 100% of the Moon is Illuminated
Mar 26
Full
Mar 27
Full
Apr 2
Last Quarter
Apr 10
New
Apr 18
First Quarter

Hourly Weather History & Observations

Time (PDT) Temp. Dew Point Humidity Pressure Visibility Wind Dir Wind Speed Gust Speed Precip Events Conditions
12:12 AM 53.6 °F 48.2 °F 82% 29.97 in 1.8 mi NE 4.6 mph - N/A   Overcast
12:54 AM 53.1 °F 48.9 °F 86% 29.96 in 1.2 mi NE 4.6 mph - N/A   Overcast
1:03 AM 53.6 °F 48.2 °F 82% 29.96 in 1.5 mi NE 3.5 mph - N/A   Overcast
1:16 AM 53.6 °F 48.2 °F 82% 29.96 in 1.2 mi NE 5.8 mph - N/A   Haze
1:31 AM 53.6 °F 48.2 °F 82% 29.96 in 1.5 mi NE 5.8 mph - N/A   Haze
1:54 AM 54.0 °F 50.0 °F 86% 29.96 in 2.0 mi Calm Calm - N/A   Overcast
2:01 AM 53.6 °F 50.0 °F 88% 29.96 in 1.2 mi Calm Calm - N/A   Overcast
2:30 AM 53.6 °F 50.0 °F 88% 29.95 in 1.5 mi NE 4.6 mph - N/A   Overcast
2:54 AM 53.1 °F 48.9 °F 86% 29.94 in 1.2 mi ENE 4.6 mph - N/A   Overcast
3:08 AM 53.6 °F 50.0 °F 88% 29.94 in 1.5 mi NE 4.6 mph - N/A   Overcast
3:53 AM 53.1 °F 48.9 °F 86% 29.94 in 3.0 mi NE 3.5 mph - N/A   Overcast
4:09 AM 53.6 °F 50.0 °F 88% 29.94 in 5.0 mi ENE 4.6 mph - N/A   Overcast
4:54 AM 53.1 °F 48.0 °F 83% 29.94 in 5.0 mi NE 5.8 mph - N/A   Haze
6:54 AM 52.0 °F 48.0 °F 86% 29.96 in 2.5 mi NE 5.8 mph - N/A   Overcast
7:54 AM 52.0 °F 48.0 °F 86% 29.96 in 2.5 mi NNE 4.6 mph - N/A   Overcast
8:13 AM 51.8 °F 48.2 °F 88% 29.97 in 3.0 mi NNE 3.5 mph - N/A   Overcast
8:54 AM 53.1 °F 48.9 °F 86% 29.97 in 3.0 mi NE 3.5 mph - N/A   Overcast
9:54 AM 57.0 °F 51.1 °F 81% 29.98 in 3.0 mi Calm Calm - N/A   Overcast
10:54 AM 57.9 °F 52.0 °F 81% 29.98 in 10.0 mi Variable 3.5 mph - N/A   Mostly Cloudy
11:20 AM 60.8 °F 51.8 °F 72% 29.98 in 10.0 mi South 3.5 mph - N/A   Scattered Clouds
11:54 AM 64.0 °F 53.1 °F 67% 29.97 in 10.0 mi Variable 6.9 mph - N/A   Partly Cloudy
12:54 PM 64.9 °F 50.0 °F 58% 29.96 in 10.0 mi SSW 5.8 mph - N/A   Scattered Clouds
1:54 PM 66.9 °F 48.9 °F 52% 29.95 in 10.0 mi SSW 8.1 mph - N/A   Scattered Clouds
2:54 PM 66.9 °F 48.0 °F 51% 29.94 in 10.0 mi South 11.5 mph 16.1 mph N/A   Scattered Clouds
3:54 PM 64.9 °F 48.9 °F 56% 29.92 in 10.0 mi SSW 9.2 mph - N/A   Scattered Clouds
4:54 PM 64.0 °F 50.0 °F 60% 29.92 in 10.0 mi SW 8.1 mph - N/A   Scattered Clouds
5:54 PM 63.0 °F 51.1 °F 65% 29.91 in 10.0 mi SSW 6.9 mph - N/A   Scattered Clouds
6:54 PM 59.0 °F 51.1 °F 75% 29.93 in 9.0 mi SSW 3.5 mph - N/A   Scattered Clouds
7:54 PM 57.9 °F 51.1 °F 78% 29.94 in 10.0 mi Calm Calm - N/A   Scattered Clouds
8:54 PM 54.0 °F 48.0 °F 80% 29.96 in 9.0 mi Calm Calm - N/A   Scattered Clouds
9:54 PM 53.1 °F 46.9 °F 80% 29.98 in 10.0 mi Calm Calm - N/A   Overcast
10:54 PM 55.0 °F 48.0 °F 77% 29.98 in 10.0 mi Calm Calm - N/A   Overcast
11:54 PM 55.0 °F 48.9 °F 80% 29.98 in 10.0 mi Calm Calm - N/A   Overcast